Terug naar catalogus

OPS 6553

ActiefNavigatiePO
NORAD 13172·PAYLOAD·🇺🇸 United States

Gelanceerd May 11, 1982 vanaf Vandenberg Space Force Base

Loading…

Volgende Passages (komende 24 uur)

TLE

VersSource: Space-Track

Epoch: Sep 13, 2026, 23:50 UTC

1 13172U 82041C   26256.99348025  .00002975  00000-0  20203-3 0  9993
2 13172  96.0121 351.5697 0008475 347.6058  12.4964 15.06868822129035

Volg OPS 6553 in realtime met AllMySat

Download on the App Store